Year,Month,Day,Hour,Minute,Value (Times are PST for temperature in C)
2010,06,02,00,00,10.80
2010,06,02,00,01,10.80
2010,06,02,00,02,10.80
2010,06,02,00,03,10.80
2010,06,02,00,04,10.80
2010,06,02,00,05,10.80
2010,06,02,00,06,10.80
2010,06,02,00,07,10.80
2010,06,02,00,08,10.80
2010,06,02,00,09,10.80
2010,06,02,00,10,10.90
2010,06,02,00,11,10.90
2010,06,02,00,12,10.90
2010,06,02,00,13,10.90
2010,06,02,00,14,10.90
2010,06,02,00,15,10.90
2010,06,02,00,16,10.90
2010,06,02,00,17,10.90
2010,06,02,00,18,10.90
2010,06,02,00,19,10.90
2010,06,02,00,20,10.90
2010,06,02,00,21,10.90
2010,06,02,00,22,10.90
2010,06,02,00,23,10.90
2010,06,02,00,24,10.90
2010,06,02,00,25,10.90
2010,06,02,00,26,10.90
2010,06,02,00,27,10.90
2010,06,02,00,28,10.90
2010,06,02,00,29,10.90
2010,06,02,00,30,10.90
2010,06,02,00,31,10.90
2010,06,02,00,32,10.90
2010,06,02,00,33,10.90
2010,06,02,00,34,10.90
2010,06,02,00,35,10.90
2010,06,02,00,36,10.90
2010,06,02,00,37,10.90
2010,06,02,00,38,10.90
2010,06,02,00,39,10.90
2010,06,02,00,40,10.90
2010,06,02,00,41,10.90
2010,06,02,00,42,10.90
2010,06,02,00,43,10.90
2010,06,02,00,44,10.90
2010,06,02,00,45,10.90
2010,06,02,00,46,10.90
2010,06,02,00,47,10.90
2010,06,02,00,48,10.90
2010,06,02,00,49,10.90
2010,06,02,00,50,10.90
2010,06,02,00,51,10.90
2010,06,02,00,52,10.90
2010,06,02,00,53,10.90
2010,06,02,00,54,10.90
2010,06,02,00,55,10.90
2010,06,02,00,56,10.90
2010,06,02,00,57,10.90
2010,06,02,00,58,10.90
2010,06,02,00,59,10.90
2010,06,02,01,00,10.90
2010,06,02,01,01,10.90
2010,06,02,01,02,10.90
2010,06,02,01,03,10.90
2010,06,02,01,04,10.90
2010,06,02,01,05,11.00
2010,06,02,01,06,11.00
2010,06,02,01,07,11.00
2010,06,02,01,08,11.00
2010,06,02,01,09,11.00
2010,06,02,01,10,11.00
2010,06,02,01,11,11.00
2010,06,02,01,12,11.00
2010,06,02,01,13,11.10
2010,06,02,01,14,11.10
2010,06,02,01,15,11.10
2010,06,02,01,16,11.10
2010,06,02,01,17,11.10
2010,06,02,01,18,11.10
2010,06,02,01,19,11.10
2010,06,02,01,20,11.10
2010,06,02,01,21,11.10
2010,06,02,01,22,11.10
2010,06,02,01,23,11.10
2010,06,02,01,24,11.10
2010,06,02,01,25,11.10
2010,06,02,01,26,11.10
2010,06,02,01,27,11.10
2010,06,02,01,28,11.10
2010,06,02,01,29,11.10
2010,06,02,01,30,11.20
2010,06,02,01,31,11.20
2010,06,02,01,32,11.20
2010,06,02,01,33,11.20
2010,06,02,01,34,11.20
2010,06,02,01,35,11.20
2010,06,02,01,36,11.20
2010,06,02,01,37,11.20
2010,06,02,01,38,11.20
2010,06,02,01,39,11.20
2010,06,02,01,40,11.20
2010,06,02,01,41,11.20
2010,06,02,01,42,11.20
2010,06,02,01,43,11.20
2010,06,02,01,44,11.20
2010,06,02,01,45,11.20
2010,06,02,01,46,11.20
2010,06,02,01,47,11.20
2010,06,02,01,48,11.20
2010,06,02,01,49,11.20
2010,06,02,01,50,11.20
2010,06,02,01,51,11.20
2010,06,02,01,52,11.20
2010,06,02,01,53,11.20
2010,06,02,01,54,11.30
2010,06,02,01,55,11.30
2010,06,02,01,56,11.30
2010,06,02,01,57,11.30
2010,06,02,01,58,11.30
2010,06,02,01,59,11.30
2010,06,02,02,00,11.30
2010,06,02,02,01,11.30
2010,06,02,02,02,11.30
2010,06,02,02,03,11.30
2010,06,02,02,04,11.30
2010,06,02,02,05,11.30
2010,06,02,02,06,11.30
2010,06,02,02,07,11.30
2010,06,02,02,08,11.20
2010,06,02,02,09,11.20
2010,06,02,02,10,11.30
2010,06,02,02,11,11.20
2010,06,02,02,12,11.20
2010,06,02,02,13,11.20
2010,06,02,02,14,11.20
2010,06,02,02,15,11.20
2010,06,02,02,16,11.30
2010,06,02,02,17,11.30
2010,06,02,02,18,11.30
2010,06,02,02,19,11.20
2010,06,02,02,20,11.20
2010,06,02,02,21,11.20
2010,06,02,02,22,11.20
2010,06,02,02,23,11.20
2010,06,02,02,24,11.20
2010,06,02,02,25,11.30
2010,06,02,02,26,11.30
2010,06,02,02,27,11.30
2010,06,02,02,28,11.30
2010,06,02,02,29,11.30
2010,06,02,02,30,11.30
2010,06,02,02,31,11.30
2010,06,02,02,32,11.30
2010,06,02,02,33,11.30
2010,06,02,02,34,11.30
2010,06,02,02,35,11.30
2010,06,02,02,36,11.30
2010,06,02,02,37,11.30
2010,06,02,02,38,11.30
2010,06,02,02,39,11.40
2010,06,02,02,40,11.40
2010,06,02,02,41,11.40
2010,06,02,02,42,11.40
2010,06,02,02,43,11.40
2010,06,02,02,44,11.30
2010,06,02,02,45,11.40
2010,06,02,02,46,11.30
2010,06,02,02,47,11.30
2010,06,02,02,48,11.30
2010,06,02,02,49,11.30
2010,06,02,02,50,11.30
2010,06,02,02,51,11.40
2010,06,02,02,52,11.40
2010,06,02,02,53,11.40
2010,06,02,02,54,11.40
2010,06,02,02,55,11.40
2010,06,02,02,56,11.40
2010,06,02,02,57,11.40
2010,06,02,02,58,11.40
2010,06,02,02,59,11.30
2010,06,02,03,00,11.40
2010,06,02,03,01,11.40
2010,06,02,03,02,11.40
2010,06,02,03,03,11.30
2010,06,02,03,04,11.40
2010,06,02,03,05,11.40
2010,06,02,03,06,11.40
2010,06,02,03,07,11.30
2010,06,02,03,08,11.30
2010,06,02,03,09,11.30
2010,06,02,03,10,11.30
2010,06,02,03,11,11.30
2010,06,02,03,12,11.30
2010,06,02,03,13,11.30
2010,06,02,03,14,11.30
2010,06,02,03,15,11.30
2010,06,02,03,16,11.30
2010,06,02,03,17,11.30
2010,06,02,03,18,11.30
2010,06,02,03,19,11.30
2010,06,02,03,20,11.30
2010,06,02,03,21,11.30
2010,06,02,03,22,11.30
2010,06,02,03,23,11.30
2010,06,02,03,24,11.30
2010,06,02,03,25,11.30
2010,06,02,03,26,11.30
2010,06,02,03,27,11.30
2010,06,02,03,28,11.30
2010,06,02,03,29,11.30
2010,06,02,03,30,11.30
2010,06,02,03,31,11.30
2010,06,02,03,32,11.30
2010,06,02,03,33,11.40
2010,06,02,03,34,11.40
2010,06,02,03,35,11.40
2010,06,02,03,36,11.40
2010,06,02,03,37,11.40
2010,06,02,03,38,11.40
2010,06,02,03,39,11.40
2010,06,02,03,40,11.40
2010,06,02,03,41,11.40
2010,06,02,03,42,11.40
2010,06,02,03,43,11.40
2010,06,02,03,44,11.40
2010,06,02,03,45,11.40
2010,06,02,03,46,11.40
2010,06,02,03,47,11.40
2010,06,02,03,48,11.40
2010,06,02,03,49,11.40
2010,06,02,03,50,11.40
2010,06,02,03,51,11.40
2010,06,02,03,52,11.40
2010,06,02,03,53,11.40
2010,06,02,03,54,11.40
2010,06,02,03,55,11.40
2010,06,02,03,56,11.30
2010,06,02,03,57,11.30
2010,06,02,03,58,11.30
2010,06,02,03,59,11.30
2010,06,02,04,00,11.30
2010,06,02,04,01,11.30
2010,06,02,04,02,11.30
2010,06,02,04,03,11.30
2010,06,02,04,04,11.30
2010,06,02,04,05,11.30
2010,06,02,04,06,11.30
2010,06,02,04,07,11.30
2010,06,02,04,08,11.30
2010,06,02,04,09,11.30
2010,06,02,04,10,11.30
2010,06,02,04,11,11.30
2010,06,02,04,12,11.40
2010,06,02,04,13,11.40
2010,06,02,04,14,11.40
2010,06,02,04,15,11.40
2010,06,02,04,16,11.40
2010,06,02,04,17,11.40
2010,06,02,04,18,11.40
2010,06,02,04,19,11.40
2010,06,02,04,20,11.40
2010,06,02,04,21,11.40
2010,06,02,04,22,11.40
2010,06,02,04,23,11.40
2010,06,02,04,24,11.40
2010,06,02,04,25,11.40
2010,06,02,04,26,11.40
2010,06,02,04,27,11.40
2010,06,02,04,28,11.40
2010,06,02,04,29,11.40
2010,06,02,04,30,11.40
2010,06,02,04,31,11.40
2010,06,02,04,32,11.50
2010,06,02,04,33,11.50
2010,06,02,04,34,11.50
2010,06,02,04,35,11.50
2010,06,02,04,36,11.50
2010,06,02,04,37,11.50
2010,06,02,04,38,11.50
2010,06,02,04,39,11.40
2010,06,02,04,40,11.40
2010,06,02,04,41,11.50
2010,06,02,04,42,11.50
2010,06,02,04,43,11.50
2010,06,02,04,44,11.50
2010,06,02,04,45,11.50
2010,06,02,04,46,11.50
2010,06,02,04,47,11.50
2010,06,02,04,48,11.50
2010,06,02,04,49,11.50
2010,06,02,04,50,11.50
2010,06,02,04,51,11.50
2010,06,02,04,52,11.50
2010,06,02,04,53,11.50
2010,06,02,04,54,11.50
2010,06,02,04,55,11.50
2010,06,02,04,56,11.50
2010,06,02,04,57,11.50
2010,06,02,04,58,11.50
2010,06,02,04,59,11.50
2010,06,02,05,00,11.50
2010,06,02,05,01,11.50
2010,06,02,05,02,11.50
2010,06,02,05,03,11.50
2010,06,02,05,04,11.50
2010,06,02,05,05,11.50
2010,06,02,05,06,11.50
2010,06,02,05,07,11.50
2010,06,02,05,08,11.50
2010,06,02,05,09,11.50
2010,06,02,05,10,11.50
2010,06,02,05,11,11.60
2010,06,02,05,12,11.60
2010,06,02,05,13,11.60
2010,06,02,05,14,11.60
2010,06,02,05,15,11.60
2010,06,02,05,16,11.60
2010,06,02,05,17,11.60
2010,06,02,05,18,11.60
2010,06,02,05,19,11.60
2010,06,02,05,20,11.60
2010,06,02,05,21,11.60
2010,06,02,05,22,11.60
2010,06,02,05,23,11.60
2010,06,02,05,24,11.60
2010,06,02,05,25,11.60
2010,06,02,05,26,11.60
2010,06,02,05,27,11.60
2010,06,02,05,28,11.60
2010,06,02,05,29,11.60
2010,06,02,05,30,11.60
2010,06,02,05,31,11.60
2010,06,02,05,32,11.60
2010,06,02,05,33,11.60
2010,06,02,05,34,11.60
2010,06,02,05,35,11.60
2010,06,02,05,36,11.60
2010,06,02,05,37,11.50
2010,06,02,05,38,11.50
2010,06,02,05,39,11.50
2010,06,02,05,40,11.50
2010,06,02,05,41,11.50
2010,06,02,05,42,11.50
2010,06,02,05,43,11.50
2010,06,02,05,44,11.50
2010,06,02,05,45,11.50
2010,06,02,05,46,11.50
2010,06,02,05,47,11.50
2010,06,02,05,48,11.50
2010,06,02,05,49,11.50
2010,06,02,05,50,11.60
2010,06,02,05,51,11.50
2010,06,02,05,52,11.50
2010,06,02,05,53,11.50
2010,06,02,05,54,11.50
2010,06,02,05,55,11.50
2010,06,02,05,56,11.50
2010,06,02,05,57,11.50
2010,06,02,05,58,11.50
2010,06,02,05,59,11.50
2010,06,02,06,00,11.50
2010,06,02,06,01,11.50
2010,06,02,06,02,11.50
2010,06,02,06,03,11.50
2010,06,02,06,04,11.50
2010,06,02,06,05,11.50
2010,06,02,06,06,11.40
2010,06,02,06,07,11.40
2010,06,02,06,08,11.50
2010,06,02,06,09,11.50
2010,06,02,06,10,11.50
2010,06,02,06,11,11.50
2010,06,02,06,12,11.50
2010,06,02,06,13,11.40
2010,06,02,06,14,11.50
2010,06,02,06,15,11.50
2010,06,02,06,16,11.50
2010,06,02,06,17,11.50
2010,06,02,06,18,11.50
2010,06,02,06,19,11.50
2010,06,02,06,20,11.50
2010,06,02,06,21,11.60
2010,06,02,06,22,11.60
2010,06,02,06,23,11.60
2010,06,02,06,24,11.60
2010,06,02,06,25,11.60
2010,06,02,06,26,11.60
2010,06,02,06,27,11.60
2010,06,02,06,28,11.60
2010,06,02,06,29,11.60
2010,06,02,06,30,11.60
2010,06,02,06,31,11.60
2010,06,02,06,32,11.60
2010,06,02,06,33,11.60
2010,06,02,06,34,11.60
2010,06,02,06,35,11.60
2010,06,02,06,36,11.60
2010,06,02,06,37,11.60
2010,06,02,06,38,11.60
2010,06,02,06,39,11.60
2010,06,02,06,40,11.60
2010,06,02,06,41,11.60
2010,06,02,06,42,11.60
2010,06,02,06,43,11.60
2010,06,02,06,44,11.60
2010,06,02,06,45,11.60
2010,06,02,06,46,11.60
2010,06,02,06,47,11.60
2010,06,02,06,48,11.60
2010,06,02,06,49,11.60
2010,06,02,06,50,11.60
2010,06,02,12,12,14.40
2010,06,02,12,13,14.40
2010,06,02,12,14,14.50
2010,06,02,12,15,14.50
2010,06,02,12,16,14.50
2010,06,02,12,17,14.60
2010,06,02,12,18,14.60
2010,06,02,12,19,14.60
2010,06,02,12,20,14.60
2010,06,02,12,21,14.70
2010,06,02,12,22,14.80
2010,06,02,12,23,14.80
2010,06,02,12,24,14.90
2010,06,02,12,25,15.00
2010,06,02,12,26,15.00
2010,06,02,12,27,15.00
2010,06,02,12,28,15.00
2010,06,02,12,29,15.00
2010,06,02,12,30,15.00
2010,06,02,12,31,15.00
2010,06,02,12,32,15.00
2010,06,02,12,33,15.00
2010,06,02,12,34,15.00
2010,06,02,12,35,15.00
2010,06,02,12,36,15.00
2010,06,02,12,37,15.00
2010,06,02,12,38,15.00
2010,06,02,12,39,15.00
2010,06,02,12,40,15.00
2010,06,02,12,41,15.00
2010,06,02,12,42,15.00
2010,06,02,12,43,15.00
2010,06,02,12,44,15.00
2010,06,02,12,45,15.00
2010,06,02,12,46,15.00
2010,06,02,12,47,15.00
2010,06,02,12,48,15.00
2010,06,02,12,49,15.00
2010,06,02,12,50,15.00
2010,06,02,12,51,15.00
2010,06,02,12,52,15.00
2010,06,02,12,53,15.00
2010,06,02,12,54,14.80
2010,06,02,12,55,14.80
2010,06,02,12,56,14.80
2010,06,02,12,57,14.80
2010,06,02,12,58,14.70
2010,06,02,12,59,14.70
2010,06,02,13,00,14.70
2010,06,02,13,01,14.70
2010,06,02,13,02,14.70
2010,06,02,13,03,14.80
2010,06,02,13,04,14.80
2010,06,02,13,05,14.80
2010,06,02,13,06,14.90
2010,06,02,13,07,15.00
2010,06,02,13,08,15.00
2010,06,02,13,09,15.00
2010,06,02,13,10,15.00
2010,06,02,13,11,15.00
2010,06,02,13,12,15.00
2010,06,02,13,13,15.00
2010,06,02,13,14,15.00
2010,06,02,13,15,15.00
2010,06,02,13,16,15.00
2010,06,02,13,17,15.00
2010,06,02,13,18,15.00
2010,06,02,13,19,15.00
2010,06,02,13,20,15.00
2010,06,02,13,21,15.10
2010,06,02,13,22,15.00
2010,06,02,13,23,15.00
2010,06,02,13,24,15.00
2010,06,02,13,25,15.10
2010,06,02,13,26,15.00
2010,06,02,13,27,15.00
2010,06,02,13,28,15.10
2010,06,02,13,29,15.10
2010,06,02,13,30,15.00
2010,06,02,13,31,15.00
2010,06,02,13,32,15.00
2010,06,02,13,33,15.10
2010,06,02,13,34,15.10
2010,06,02,13,35,15.20
2010,06,02,13,36,15.20
2010,06,02,13,37,15.20
2010,06,02,13,38,15.30
2010,06,02,13,39,15.40
2010,06,02,13,40,15.50
2010,06,02,13,41,15.60
2010,06,02,13,42,15.60
2010,06,02,13,43,15.60
2010,06,02,13,44,15.60
2010,06,02,13,45,15.60
2010,06,02,13,46,15.60
2010,06,02,13,47,15.60
2010,06,02,13,48,15.60
2010,06,02,13,49,15.70
2010,06,02,13,50,15.70
2010,06,02,13,51,15.70
2010,06,02,13,52,15.80
2010,06,02,13,53,15.80
2010,06,02,13,54,15.80
2010,06,02,13,55,15.80
2010,06,02,13,56,15.80
2010,06,02,13,57,15.80
2010,06,02,13,58,15.80
2010,06,02,13,59,16.00
2010,06,02,14,00,16.00
2010,06,02,14,01,16.10
2010,06,02,14,02,16.20
2010,06,02,14,03,16.20
2010,06,02,14,04,16.30
2010,06,02,14,05,16.40
2010,06,02,14,06,16.50
2010,06,02,14,07,16.70
2010,06,02,14,08,16.90
2010,06,02,14,09,17.10
2010,06,02,14,10,17.10
2010,06,02,14,11,17.10
2010,06,02,14,12,17.20
2010,06,02,14,13,17.40
2010,06,02,14,14,17.60
2010,06,02,14,15,17.60
2010,06,02,14,16,17.70
2010,06,02,14,17,17.70
2010,06,02,14,18,17.70
2010,06,02,14,19,17.70
2010,06,02,14,20,17.60
2010,06,02,14,21,17.70
2010,06,02,14,22,17.90
2010,06,02,14,23,17.90
2010,06,02,14,24,18.00
2010,06,02,14,25,18.00
2010,06,02,14,26,18.00
2010,06,02,14,27,18.00
2010,06,02,14,28,18.00
2010,06,02,14,29,18.00
2010,06,02,14,30,18.00
2010,06,02,14,31,18.10
2010,06,02,14,32,18.00
2010,06,02,14,33,18.00
2010,06,02,14,34,17.90
2010,06,02,14,35,18.00
2010,06,02,14,36,18.00
2010,06,02,14,37,18.00
2010,06,02,14,38,18.00
2010,06,02,14,39,17.90
2010,06,02,14,40,18.00
2010,06,02,14,41,18.10
2010,06,02,14,42,18.20
2010,06,02,14,43,18.40
2010,06,02,14,44,18.60
2010,06,02,14,45,18.80
2010,06,02,14,46,19.00
2010,06,02,14,47,19.20
2010,06,02,14,48,19.30
2010,06,02,14,49,19.30
2010,06,02,14,50,19.30
2010,06,02,14,51,19.30
2010,06,02,14,52,19.30
2010,06,02,14,53,19.30
2010,06,02,14,54,19.40
2010,06,02,14,55,19.30
2010,06,02,14,56,19.30
2010,06,02,14,57,19.30
2010,06,02,14,58,19.20
2010,06,02,14,59,19.10
2010,06,02,15,00,19.10
2010,06,02,15,01,18.90
2010,06,02,15,02,18.90
2010,06,02,15,03,18.70
2010,06,02,15,04,18.50
2010,06,02,15,05,18.40
2010,06,02,15,06,18.30
2010,06,02,15,07,18.20
2010,06,02,15,08,18.10
2010,06,02,15,09,18.00
2010,06,02,15,10,17.90
2010,06,02,15,11,17.80
2010,06,02,15,12,17.70
2010,06,02,15,13,17.70
2010,06,02,15,14,17.60
2010,06,02,15,15,17.60
2010,06,02,15,16,17.50
2010,06,02,15,17,17.50
2010,06,02,15,18,17.60
2010,06,02,15,19,17.50
2010,06,02,15,20,17.50
2010,06,02,15,21,17.50
2010,06,02,15,22,17.50
2010,06,02,15,23,17.40
2010,06,02,15,24,17.40
2010,06,02,15,25,17.40
2010,06,02,15,26,17.40
2010,06,02,15,27,17.40
2010,06,02,15,28,17.50
2010,06,02,15,29,17.50
2010,06,02,15,30,17.60
2010,06,02,15,31,17.60
2010,06,02,15,32,17.70
2010,06,02,15,33,17.80
2010,06,02,15,34,17.80
2010,06,02,15,35,17.80
2010,06,02,15,36,17.90
2010,06,02,15,37,18.00
2010,06,02,15,38,18.10
2010,06,02,15,39,18.20
2010,06,02,15,40,18.20
2010,06,02,15,41,18.20
2010,06,02,15,42,18.20
2010,06,02,15,43,18.20
2010,06,02,15,44,18.20
2010,06,02,15,45,18.20
2010,06,02,15,46,18.20
2010,06,02,15,47,18.20
2010,06,02,15,48,18.20
2010,06,02,15,49,18.10
2010,06,02,15,50,18.10
2010,06,02,15,51,18.10
2010,06,02,15,52,18.20
2010,06,02,15,53,18.20
2010,06,02,15,54,18.10
2010,06,02,15,55,18.10
2010,06,02,15,56,18.00
2010,06,02,15,57,17.90
2010,06,02,15,58,17.80
2010,06,02,15,59,17.90
2010,06,02,16,00,17.90
2010,06,02,16,01,17.70
2010,06,02,16,02,17.60
2010,06,02,16,03,17.60
2010,06,02,16,04,17.60
2010,06,02,16,05,17.60
2010,06,02,16,06,17.50
2010,06,02,16,07,17.40
2010,06,02,16,08,17.40
2010,06,02,16,09,17.30
2010,06,02,16,10,17.30
2010,06,02,16,11,17.30
2010,06,02,16,12,17.30
2010,06,02,16,13,17.20
2010,06,02,16,14,17.10
2010,06,02,16,15,17.10
2010,06,02,16,16,17.10
2010,06,02,16,17,17.10
2010,06,02,16,18,17.00
2010,06,02,16,19,16.90
2010,06,02,16,20,16.80
2010,06,02,16,21,16.80
2010,06,02,16,22,16.80
2010,06,02,16,23,16.80
2010,06,02,16,24,16.80
2010,06,02,16,25,16.70
2010,06,02,16,26,16.60
2010,06,02,16,27,16.60
2010,06,02,16,28,16.60
2010,06,02,16,29,16.60
2010,06,02,16,30,16.60
2010,06,02,16,31,16.60
2010,06,02,16,32,16.70
2010,06,02,16,33,16.70
2010,06,02,16,34,16.70
2010,06,02,16,35,16.80
2010,06,02,16,36,16.80
2010,06,02,16,37,16.70
2010,06,02,16,38,16.70
2010,06,02,16,39,16.70
2010,06,02,16,40,16.80
2010,06,02,16,41,16.80
2010,06,02,16,42,16.80
2010,06,02,16,43,16.80
2010,06,02,16,44,16.90
2010,06,02,16,45,16.90
2010,06,02,16,46,17.00
2010,06,02,16,47,17.00
2010,06,02,16,48,17.10
2010,06,02,16,49,17.10
2010,06,02,16,50,17.10
2010,06,02,16,51,17.10
2010,06,02,16,52,17.10
2010,06,02,16,53,17.20
2010,06,02,16,54,17.20
2010,06,02,16,55,17.20
2010,06,02,16,56,17.20
2010,06,02,16,57,17.20
2010,06,02,16,58,17.20
2010,06,02,16,59,17.20
2010,06,02,17,00,17.20
2010,06,02,17,01,17.20
2010,06,02,17,02,17.20
2010,06,02,17,03,17.20
2010,06,02,17,04,17.10
2010,06,02,17,05,17.00
2010,06,02,17,06,16.90
2010,06,02,17,07,16.80
2010,06,02,17,08,16.70
2010,06,02,17,09,16.70
2010,06,02,17,10,16.60
2010,06,02,17,11,16.60
2010,06,02,17,12,16.60
2010,06,02,17,13,16.60
2010,06,02,17,14,16.50
2010,06,02,17,15,16.50
2010,06,02,17,16,16.50
2010,06,02,17,17,16.50
2010,06,02,17,18,16.60
2010,06,02,17,19,16.60
2010,06,02,17,20,16.60
2010,06,02,17,21,16.60
2010,06,02,17,22,16.60
2010,06,02,17,23,16.60
2010,06,02,17,24,16.60
2010,06,02,17,25,16.50
2010,06,02,17,26,16.50
2010,06,02,17,27,16.40
2010,06,02,17,28,16.40
2010,06,02,17,29,16.40
2010,06,02,17,30,16.30
2010,06,02,17,31,16.30
2010,06,02,17,32,16.30
2010,06,02,17,33,16.30
2010,06,02,17,34,16.30
2010,06,02,17,35,16.30
2010,06,02,17,36,16.30
2010,06,02,17,37,16.20
2010,06,02,17,38,16.20
2010,06,02,17,39,16.20
2010,06,02,17,40,16.20
2010,06,02,17,41,16.10
2010,06,02,17,42,16.10
2010,06,02,17,43,16.10
2010,06,02,17,44,16.00
2010,06,02,17,45,15.90
2010,06,02,17,46,15.80
2010,06,02,17,47,15.70
2010,06,02,17,48,15.60
2010,06,02,17,49,15.50
2010,06,02,17,50,15.40
2010,06,02,17,51,15.30
2010,06,02,17,52,15.30
2010,06,02,17,53,15.30
2010,06,02,17,54,15.20
2010,06,02,17,55,15.20
2010,06,02,17,56,15.20
2010,06,02,17,57,15.20
2010,06,02,17,58,15.10
2010,06,02,17,59,15.00
2010,06,02,18,00,15.00
2010,06,02,18,01,15.00
2010,06,02,18,02,15.00
2010,06,02,18,03,15.00
2010,06,02,18,04,14.90
2010,06,02,18,05,14.80
2010,06,02,18,06,14.70
2010,06,02,18,07,14.70
2010,06,02,18,08,14.70
2010,06,02,18,09,14.70
2010,06,02,18,10,14.60
2010,06,02,18,11,14.60
2010,06,02,18,12,14.60
2010,06,02,18,13,14.50
2010,06,02,18,14,14.40
2010,06,02,18,15,14.40
2010,06,02,18,16,14.30
2010,06,02,18,17,14.30
2010,06,02,18,18,14.30
2010,06,02,18,19,14.30
2010,06,02,18,20,14.20
2010,06,02,18,21,14.20
2010,06,02,18,22,14.20
2010,06,02,18,23,14.20
2010,06,02,18,24,14.10
2010,06,02,18,25,14.10
2010,06,02,18,26,14.10
2010,06,02,18,27,14.10
2010,06,02,18,28,14.10
2010,06,02,18,29,14.00
2010,06,02,18,30,13.90
2010,06,02,18,31,13.80
2010,06,02,18,32,13.80
2010,06,02,18,33,13.70
2010,06,02,18,34,13.60
2010,06,02,18,35,13.60
2010,06,02,18,36,13.50
2010,06,02,18,37,13.40
2010,06,02,18,38,13.40
2010,06,02,18,39,13.40
2010,06,02,18,40,13.30
2010,06,02,18,41,13.30
2010,06,02,18,42,13.20
2010,06,02,18,43,13.20
2010,06,02,18,44,13.10
2010,06,02,18,45,13.10
2010,06,02,18,46,13.10
2010,06,02,18,47,13.00
2010,06,02,18,48,13.00
2010,06,02,18,49,12.90
2010,06,02,18,50,12.80
2010,06,02,18,51,12.80
2010,06,02,18,52,12.70
2010,06,02,18,53,12.70
2010,06,02,18,54,12.60
2010,06,02,18,55,12.60
2010,06,02,18,56,12.50
2010,06,02,18,57,12.50
2010,06,02,18,58,12.50
2010,06,02,18,59,12.50
2010,06,02,19,00,12.40
2010,06,02,19,01,12.40
2010,06,02,19,02,12.40
2010,06,02,19,03,12.30
2010,06,02,19,04,12.30
2010,06,02,19,05,12.30
2010,06,02,19,06,12.30
2010,06,02,19,07,12.30
2010,06,02,19,08,12.30
2010,06,02,19,09,12.30
2010,06,02,19,10,12.30
2010,06,02,19,11,12.30
2010,06,02,19,12,12.20
2010,06,02,19,13,12.20
2010,06,02,19,14,12.20
2010,06,02,19,15,12.20
2010,06,02,19,16,12.20
2010,06,02,19,17,12.10
2010,06,02,19,18,12.10
2010,06,02,19,19,12.10
2010,06,02,19,20,12.10
2010,06,02,19,21,12.10
2010,06,02,19,22,12.00
2010,06,02,19,23,12.00
2010,06,02,19,24,11.90
2010,06,02,19,25,11.90
2010,06,02,19,26,11.90
2010,06,02,19,27,11.90
2010,06,02,19,28,11.80
2010,06,02,19,29,11.80
2010,06,02,19,30,11.80
2010,06,02,19,31,11.80
2010,06,02,19,32,11.80
2010,06,02,19,33,11.80
2010,06,02,19,34,11.80
2010,06,02,19,35,11.80
2010,06,02,19,36,11.70
2010,06,02,19,37,11.70
2010,06,02,19,38,11.70
2010,06,02,19,39,11.60
2010,06,02,19,40,11.60
2010,06,02,19,41,11.60
2010,06,02,19,42,11.60
2010,06,02,19,43,11.50
2010,06,02,19,44,11.50
2010,06,02,19,45,11.50
2010,06,02,19,46,11.40
2010,06,02,19,47,11.40
2010,06,02,19,48,11.40
2010,06,02,19,49,11.30
2010,06,02,19,50,11.30
2010,06,02,19,51,11.30
2010,06,02,19,52,11.30
2010,06,02,19,53,11.30
2010,06,02,19,54,11.20
2010,06,02,19,55,11.20
2010,06,02,19,56,11.20
2010,06,02,19,57,11.20
2010,06,02,19,58,11.20
2010,06,02,19,59,11.20
2010,06,02,20,00,11.20
2010,06,02,20,01,11.20
2010,06,02,20,02,11.20
2010,06,02,20,03,11.20
2010,06,02,20,04,11.10
2010,06,02,20,05,11.10
2010,06,02,20,06,11.10
2010,06,02,20,07,11.10
2010,06,02,20,08,11.10
2010,06,02,20,09,11.10
2010,06,02,20,10,11.00
2010,06,02,20,11,11.00
2010,06,02,20,12,11.00
2010,06,02,20,13,11.00
2010,06,02,20,14,11.00
2010,06,02,20,15,11.00
2010,06,02,20,16,10.90
2010,06,02,20,17,10.90
2010,06,02,20,18,10.90
2010,06,02,20,19,10.90
2010,06,02,20,20,10.90
2010,06,02,20,21,10.90
2010,06,02,20,22,10.90
2010,06,02,20,23,10.90
2010,06,02,20,24,10.90
2010,06,02,20,25,10.80
2010,06,02,20,26,10.80
2010,06,02,20,27,10.80
2010,06,02,20,28,10.80
2010,06,02,20,29,10.80
2010,06,02,20,30,10.80
2010,06,02,20,31,10.80
2010,06,02,20,32,10.80
2010,06,02,20,33,10.80
2010,06,02,20,34,10.80
2010,06,02,20,35,10.80
2010,06,02,20,36,10.80
2010,06,02,20,37,10.80
2010,06,02,20,38,10.80
2010,06,02,20,39,10.80
2010,06,02,20,40,10.80
2010,06,02,20,41,10.80
2010,06,02,20,42,10.80
2010,06,02,20,43,10.80
2010,06,02,20,44,10.80
2010,06,02,20,45,10.80
2010,06,02,20,46,10.80
2010,06,02,20,47,10.80
2010,06,02,20,48,10.80
2010,06,02,20,49,10.80
2010,06,02,20,50,10.80
2010,06,02,20,51,10.80
2010,06,02,20,52,10.80
2010,06,02,20,53,10.80
2010,06,02,20,54,10.80
2010,06,02,20,55,10.80
2010,06,02,20,56,10.80
2010,06,02,20,57,10.80
2010,06,02,20,58,10.80
2010,06,02,20,59,10.80
2010,06,02,21,00,10.80
2010,06,02,21,01,10.80
2010,06,02,21,02,10.80
2010,06,02,21,03,10.80
2010,06,02,21,04,10.80
2010,06,02,21,05,10.80
2010,06,02,21,06,10.80
2010,06,02,21,07,10.80
2010,06,02,21,08,10.90
2010,06,02,21,09,10.90
2010,06,02,21,10,10.90
2010,06,02,21,11,10.90
2010,06,02,21,12,10.90
2010,06,02,21,13,10.90
2010,06,02,21,14,10.90
2010,06,02,21,15,10.90
2010,06,02,21,16,10.80
2010,06,02,21,17,10.80
2010,06,02,21,18,10.80
2010,06,02,21,19,10.80
2010,06,02,21,20,10.80
2010,06,02,21,21,10.80
2010,06,02,21,22,10.80
2010,06,02,21,23,10.80
2010,06,02,21,24,10.80
2010,06,02,21,25,10.80
2010,06,02,21,26,10.80
2010,06,02,21,27,10.70
2010,06,02,21,28,10.70
2010,06,02,21,29,10.70
2010,06,02,21,30,10.70
2010,06,02,21,31,10.70
2010,06,02,21,32,10.70
2010,06,02,21,33,10.60
2010,06,02,21,34,10.60
2010,06,02,21,35,10.60
2010,06,02,21,36,10.50
2010,06,02,21,37,10.50
2010,06,02,21,38,10.50
2010,06,02,21,39,10.40
2010,06,02,21,40,10.40
2010,06,02,21,41,10.40
2010,06,02,21,42,10.40
2010,06,02,21,43,10.40
2010,06,02,21,44,10.40
2010,06,02,21,45,10.40
2010,06,02,21,46,10.40
2010,06,02,21,47,10.40
2010,06,02,21,48,10.40
2010,06,02,21,49,10.30
2010,06,02,21,50,10.30
2010,06,02,21,51,10.30
2010,06,02,21,52,10.30
2010,06,02,21,53,10.30
2010,06,02,21,54,10.30
2010,06,02,21,55,10.30
2010,06,02,21,56,10.30
2010,06,02,21,57,10.20
2010,06,02,21,58,10.20
2010,06,02,21,59,10.20
2010,06,02,22,00,10.20
2010,06,02,22,01,10.20
2010,06,02,22,02,10.20
2010,06,02,22,03,10.20
2010,06,02,22,04,10.20
2010,06,02,22,05,10.20
2010,06,02,22,06,10.10
2010,06,02,22,07,10.10
2010,06,02,22,08,10.10
2010,06,02,22,09,10.10
2010,06,02,22,10,10.10
2010,06,02,22,11,10.00
2010,06,02,22,12,10.00
2010,06,02,22,13,9.90
2010,06,02,22,14,9.90
2010,06,02,22,15,9.90
2010,06,02,22,16,9.90
2010,06,02,22,17,9.90
2010,06,02,22,18,9.90
2010,06,02,22,19,9.90
2010,06,02,22,20,9.90
2010,06,02,22,21,9.90
2010,06,02,22,22,9.80
2010,06,02,22,23,9.80
2010,06,02,22,24,9.80
2010,06,02,22,25,9.80
2010,06,02,22,26,9.80
2010,06,02,22,27,9.80
2010,06,02,22,28,9.80
2010,06,02,22,29,9.80
2010,06,02,22,30,9.80
2010,06,02,22,31,9.80
2010,06,02,22,32,9.80
2010,06,02,22,33,9.80
2010,06,02,22,34,9.80
2010,06,02,22,35,9.70
2010,06,02,22,36,9.70
2010,06,02,22,37,9.70
2010,06,02,22,38,9.70
2010,06,02,22,39,9.70
2010,06,02,22,40,9.70
2010,06,02,22,41,9.70